Bridgeport, WV

7:47 AM EST on December 04, 2016 (GMT -0500)
Benedum

Weather History for KCKB - August, 2013

Change the Weather History Date:

Wednesday, August 28, 2013

  Actual Average Record
Temperature  
Mean Temperature 72 °F -  
Max Temperature 77 °F 83 °F 98 °F (1948)
Min Temperature 68 °F 60 °F 44 °F (1945)
Cooling Degree Days 8    
Growing Degree Days 22 (Base 50)    
Moisture  
Dew Point 71 °F    
Average Humidity 90    
Maximum Humidity 94    
Minimum Humidity 83    
Precipitation  
Precipitation 3.02 in - - ()
Sea Level Pressure  
Sea Level Pressure 29.92 in    
Wind  
Wind Speed 5 mph (SW)    
Max Wind Speed 13 mph    
Max Gust Speed -    
Visibility 3 miles    
Events Fog , Rain , Thunderstorm    
Averages and records for this station are not official NWS values.
T = Trace of Precipitation, MM = Missing Value Source: NWS Daily Summary

Daily Weather History Graph

Daily Weather History Graph

Search for Another Location

Airport or City:

Trip Planner

Search our weather history database for the weather conditions in past years. The results will help you decide how hot, cold, wet, or windy it might be!

Date:

Astronomy

Aug. 28, 2013 Rise Set
Actual Time 6:45 AM EDT 7:57 PM EDT
Civil Twilight 6:18 AM EDT 8:25 PM EDT
Nautical Twilight 5:45 AM EDT 8:58 PM EDT
Astronomical Twilight 5:10 AM EDT 9:32 PM EDT
Moon No Moon Rise 2:32 PM EDT (8/28)
Length of Visible Light 14h 06m
Length of Day
13h 11m
Waning Gibbous, 47% of the Moon is Illuminated
Aug 28
Waning Gibbous
Sep 5
New
Sep 12
First Quarter
Sep 19
Full
Sep 26
Last Quarter

Hourly Weather History & Observations

Time (EDT) Temp. Dew Point Humidity Pressure Visibility Wind Dir Wind Speed Gust Speed Precip Events Conditions
12:53 AM 73.0 °F 70.0 °F 90% 29.96 in 5.0 mi South 5.8 mph - N/A   Partly Cloudy
1:53 AM 73.0 °F 69.1 °F 87% 29.94 in 5.0 mi South 5.8 mph - N/A   Partly Cloudy
2:53 AM 73.0 °F 69.1 °F 87% 29.91 in 5.0 mi South 4.6 mph - 0.00 in Rain Light Rain
3:20 AM 73.4 °F 69.8 °F 88% 29.96 in 2.5 mi Calm Calm - 0.03 in Rain , Thunderstorm Rain
3:30 AM 73.4 °F 69.8 °F 88% 29.97 in 4.0 mi WNW 3.5 mph - 0.03 in Rain , Thunderstorm Light Thunderstorms and Rain
3:40 AM 71.6 °F 69.8 °F 94% 29.97 in 1.8 mi WNW 12.7 mph - 0.15 in Rain , Thunderstorm Thunderstorms and Rain
3:49 AM 71.6 °F 68.0 °F 88% 29.96 in 0.8 mi SSW 5.8 mph - 0.31 in Rain , Thunderstorm Heavy Thunderstorms and Rain
3:53 AM 71.1 °F 69.1 °F 93% 29.93 in 1.0 mi Variable 6.9 mph - 0.33 in Rain , Thunderstorm Heavy Thunderstorms and Rain
3:59 AM 69.8 °F 68.0 °F 94% 29.97 in 2.0 mi NNW 3.5 mph - 0.03 in Rain , Thunderstorm Heavy Thunderstorms and Rain
4:04 AM 69.8 °F 68.0 °F 94% 29.97 in 1.8 mi WNW 9.2 mph - 0.10 in Rain , Thunderstorm Heavy Rain
4:13 AM 69.8 °F 68.0 °F 94% 29.98 in 0.8 mi WNW 5.8 mph - 0.32 in Rain , Thunderstorm Heavy Thunderstorms and Rain
4:46 AM 69.8 °F 66.2 °F 88% 29.96 in 0.5 mi ENE 6.9 mph - 1.70 in Fog , Rain , Thunderstorm Heavy Thunderstorms and Rain
4:53 AM 69.1 °F 66.9 °F 93% 29.91 in 1.2 mi East 10.4 mph - 1.78 in Rain , Thunderstorm Heavy Thunderstorms and Rain
5:08 AM 69.8 °F 64.4 °F 83% 29.96 in 1.2 mi South 5.8 mph - 0.27 in Rain , Thunderstorm Heavy Rain
5:19 AM 68.0 °F 66.2 °F 94% 29.95 in 3.0 mi South 4.6 mph - 0.31 in Rain , Thunderstorm Light Rain
5:42 AM 69.8 °F 66.2 °F 88% 29.96 in 7.0 mi SW 3.5 mph - 0.32 in Rain Light Rain
5:50 AM 68.0 °F 66.2 °F 94% 29.95 in 1.8 mi South 4.6 mph - 0.41 in Rain Heavy Rain
5:53 AM 69.1 °F 66.9 °F 93% 29.91 in 1.5 mi South 3.5 mph - 0.42 in Rain Heavy Rain
6:07 AM 69.8 °F 66.2 °F 88% 29.96 in 1.5 mi SSW 4.6 mph - 0.04 in Rain Rain
6:18 AM 69.8 °F 68.0 °F 94% 29.96 in 1.5 mi Calm Calm - 0.07 in Rain Rain
6:34 AM 69.8 °F 68.0 °F 94% 29.96 in 1.5 mi SSE 3.5 mph - 0.09 in Rain Light Rain
6:53 AM 70.0 °F 68.0 °F 93% 29.93 in 2.0 mi SSE 4.6 mph - 0.10 in Rain Light Rain
7:53 AM 71.1 °F 69.1 °F 93% 29.93 in 2.0 mi South 4.6 mph - 0.01 in   Overcast
8:00 AM 71.6 °F 69.8 °F 94% 29.97 in 3.0 mi South 4.6 mph - N/A   Overcast
8:53 AM 72.0 °F 70.0 °F 93% 29.91 in 3.0 mi South 6.9 mph - N/A   Overcast
9:28 AM 73.4 °F 71.6 °F 94% 29.97 in 3.0 mi SW 5.8 mph - 0.00 in Rain Light Rain
9:43 AM 73.4 °F 71.6 °F 94% 29.97 in 2.5 mi SSW 6.9 mph - 0.00 in Rain Light Rain
9:50 AM 73.4 °F 71.6 °F 94% 29.97 in 3.0 mi SSW 6.9 mph - 0.00 in Rain Light Rain
9:53 AM 73.9 °F 72.0 °F 93% 29.92 in 3.0 mi SSW 4.6 mph - 0.00 in Rain Light Rain
10:00 AM 73.4 °F 71.6 °F 94% 29.96 in 3.0 mi SSW 5.8 mph - 0.00 in Rain Light Rain
10:27 AM 75.2 °F 71.6 °F 89% 29.95 in 3.0 mi SSW 6.9 mph - 0.00 in   Overcast
10:48 AM 75.2 °F 71.6 °F 89% 29.94 in 2.5 mi SSW 8.1 mph - 0.00 in   Overcast
10:53 AM 75.9 °F 72.0 °F 87% 29.89 in 2.5 mi SSW 6.9 mph - 0.00 in   Overcast
11:00 AM 75.2 °F 71.6 °F 89% 29.94 in 4.0 mi SSW 8.1 mph - N/A   Mostly Cloudy
11:53 AM 75.9 °F 71.1 °F 85% 29.89 in 3.0 mi SW 8.1 mph - 0.00 in   Haze
12:07 PM 75.2 °F 71.6 °F 89% 29.93 in 1.8 mi WSW 5.8 mph - 0.05 in Rain Light Rain
12:26 PM 75.2 °F 71.6 °F 89% 29.93 in 2.0 mi West 3.5 mph - 0.11 in Rain Rain
12:33 PM 73.4 °F 71.6 °F 94% 29.93 in 1.5 mi SW 3.5 mph - 0.13 in Rain Light Rain
12:38 PM 73.4 °F 71.6 °F 94% 29.93 in 3.0 mi SSW 3.5 mph - 0.13 in Rain Light Rain
12:53 PM 75.0 °F 71.1 °F 87% 29.88 in 2.0 mi WSW 5.8 mph - 0.15 in Rain Rain
1:05 PM 75.2 °F 71.6 °F 89% 29.92 in 3.0 mi SW 8.1 mph - 0.00 in   Overcast
1:08 PM 75.2 °F 71.6 °F 89% 29.92 in 1.8 mi SW 8.1 mph - 0.03 in Rain Light Rain
1:24 PM 75.2 °F 71.6 °F 89% 29.91 in 2.5 mi SSW 6.9 mph - 0.05 in Rain Light Rain
1:31 PM 77.0 °F 73.4 °F 89% 29.91 in 4.0 mi SSW 6.9 mph - 0.05 in   Overcast
1:53 PM 75.9 °F 72.0 °F 87% 29.87 in 4.0 mi SW 6.9 mph - 0.05 in Rain Light Rain
2:53 PM 75.9 °F 73.0 °F 91% 29.85 in 4.0 mi SSW 3.5 mph - 0.00 in   Overcast
3:53 PM 77.0 °F 72.0 °F 84% 29.84 in 5.0 mi WSW 3.5 mph - N/A   Haze
4:40 PM 77.0 °F 71.6 °F 83% 29.88 in 2.0 mi SSW 3.5 mph - 0.02 in Rain Light Rain
4:50 PM 77.0 °F 73.4 °F 89% 29.88 in 2.5 mi SSW 3.5 mph - 0.03 in Rain Light Rain
4:53 PM 77.0 °F 73.0 °F 88% 29.83 in 2.5 mi South 3.5 mph - 0.03 in Rain Rain
5:04 PM 75.2 °F 73.4 °F 94% 29.86 in 3.0 mi South 4.6 mph - 0.00 in Rain Light Rain
5:19 PM 75.2 °F 73.4 °F 94% 29.86 in 2.5 mi SSW 3.5 mph - 0.02 in Rain Light Rain
5:22 PM 75.2 °F 73.4 °F 94% 29.87 in 1.5 mi Variable 4.6 mph - 0.06 in Rain Light Rain
5:24 PM 75.2 °F 73.4 °F 94% 29.86 in 0.8 mi Variable 3.5 mph - 0.11 in Rain Heavy Rain
5:40 PM 75.2 °F 73.4 °F 94% 29.87 in 1.5 mi Calm Calm - 0.13 in Rain Light Rain
5:53 PM 75.0 °F 73.0 °F 94% 29.84 in 1.8 mi NNW 3.5 mph - 0.14 in Rain Rain
6:13 PM 75.2 °F 71.6 °F 89% 29.87 in 3.0 mi NW 10.4 mph - 0.01 in Rain Light Rain
6:23 PM 77.0 °F 71.6 °F 83% 29.86 in 8.0 mi WNW 4.6 mph - 0.01 in   Scattered Clouds
6:53 PM 77.0 °F 72.0 °F 84% 29.83 in 8.0 mi Calm Calm - 0.01 in   Partly Cloudy
7:53 PM 75.0 °F 72.0 °F 90% 29.85 in 3.0 mi WSW 4.6 mph - N/A   Clear
8:53 PM 75.0 °F 72.0 °F 90% 29.86 in 5.0 mi WSW 3.5 mph - N/A   Mostly Cloudy
9:46 PM 75.2 °F 71.6 °F 89% 29.91 in 4.0 mi West 3.5 mph - N/A   Overcast
9:53 PM 75.0 °F 72.0 °F 90% 29.87 in 5.0 mi West 5.8 mph - N/A   Mostly Cloudy
10:53 PM 73.9 °F 72.0 °F 93% 29.88 in 4.0 mi Calm Calm - N/A   Overcast
11:07 PM 75.2 °F 71.6 °F 89% 29.93 in 5.0 mi West 3.5 mph - N/A   Overcast
11:53 PM 75.0 °F 71.1 °F 87% 29.88 in 6.0 mi NW 5.8 mph - N/A   Overcast